SCP
0 0 0 0 0 0 0 0 0 0 0 0 0 0 0 0 0 0 0 0 -0 -0 -0 0 0 0 0 0 0 0 -0 0
0 0 0 0 0 0 0 0 0 0 0 -0 0 0 0 0 0 0 0 0 0 0 -0 0 0 0 1 0 0 0 0 0
0 0 0 0 0 0 0 0 0 0 0 0 0 0 0 0 0 0 0 0 0 0 0 0 0 0 0 1 0 1 0 0
0 0 0 0 0 0 0 0 0 0 0 0 -0 -0 0 0 0 0 0 0 0 0 0 0 0 1 0 0 0 1 0 0
0 0 0 0 0 0 0 0 0 0 0 0 0 0 0 0 0 0 -0 0 0 0 0 0 0 1 0 1 0 0 1 0
0 0 0 0 0 0 0 0 0 0 0 0 0 0 0 0 0 0 0 -0 0 0 0 0 0 1 1 1 0 0 0 0
0 0 0 0 0 0 0 0 0 0 0 0 0 -0 0 -0 0 0 0 0 0 0 0 0 0 1 1 1 1 1 1 1
0 0 0 0 0 0 0 0 0 0 0 0 0 0 -0 0 -0 0 0 0 0 0 0 1 0 0 1 1 1 1 1 1
-0 0 0 0 0 0 0 0 0 0 0 0 0 0 0 0 0 0 0 0 0 0 1 1 0 0 1 1 1 1 1 1
-0 0 0 0 0 0 0 0 0 0 0 0 0 -0 -0 0 0 0 0 0 0 0 0 0 0 0 1 1 1 1 1 1
0 0 0 0 0 0 0 0 0 0 0 0 0 0 -0 -0 0 0 0 0 0 1 0 0 0 1 0 1 1 1 1 1
-0 0 0 0 0 0 0 0 0 0 0 0 0 0 -0 0 0 0 0 0 1 0 0 0 0 0 1 0 0 1 1 1
-0 0 0 0 0 0 0 0 0 0 0 0 0 0 0 0 0 0 0 0 2 1 1 2 1 1 1 1 0 0 0 0
0 0 -0 -0 0 0 0 0 0 0 0 0 0 0 0 0 0 0 0 0 1 2 2 1 1 2 2 1 0 0 1 1
0 0 0 0 0 0 0 0 0 0 0 0 0 0 0 0 0 0 0 0 0 0 0 1 4 2 2 2 1 1 1 1
0 0 0 0 0 0 0 0 0 0 0 0 0 0 0 0 0 0 0 0 0 0 0 0 0 0 1 4 2 1 1 1
0 0 0 0 0 0 0 0 0 0 0 0 0 0 0 0 0 0 0 0 0 0 0 0 0 0 0 0 3 3 2 1
0 0 0 0 0 0 0 0 0 0 0 0 0 0 0 0 0 0 0 0 0 0 0 0 0 0 0 0 0 2 4 4
0 0 0 0 0 0 0 0 0 0 0 0 0 0 0 0 0 0 0 0 0 0 0 0 0 0 0 0 0 0 0 1
Wind_Speed_500mb
2 7 8 28 43 46 22 5 18 26 34 29 26 32 52 40 36 51 67 74 80 84 87 92 95 99 93 91 90 93 90 90
6 9 26 20 24 36 25 33 29 14 37 28 45 38 31 42 50 51 59 68 70 78 89 94 97 99 92 86 85 90 92 92
9 10 15 16 21 20 29 33 22 29 20 21 35 41 42 34 53 59 64 70 76 79 90 99 94 99 100 95 89 87 88 90
16 24 13 18 12 25 26 40 37 31 16 6 23 39 47 54 50 59 67 70 72 72 73 80 92 98 102 103 101 94 90 91
10 10 11 8 6 13 21 25 37 32 35 38 27 19 21 25 35 38 52 49 52 58 75 87 95 100 100 98 99 98 95 95
16 21 21 20 21 24 14 24 35 34 33 41 42 28 20 20 22 24 33 42 52 56 69 81 91 96 102 98 91 95 96 94
25 31 28 36 44 39 31 30 21 37 35 27 38 39 47 38 17 13 13 30 49 59 68 83 84 90 95 96 94 87 93 93
29 29 31 44 46 45 41 43 31 37 34 22 29 20 11 19 20 24 21 26 38 50 68 79 87 94 99 96 94 92 90 90
22 20 35 28 50 48 38 24 37 37 28 15 19 9 14 17 20 27 30 27 38 53 73 79 84 88 96 96 92 89 88 84
16 17 21 24 12 44 39 10 13 22 13 16 18 12 16 21 25 28 33 37 41 44 61 82 80 76 81 85 92 89 86 82
10 12 30 24 7 25 34 8 7 13 10 14 15 13 8 36 31 33 35 40 48 48 54 62 71 83 88 88 86 85 83 80
12 13 14 7 25 24 7 9 13 13 13 18 13 11 11 38 33 30 28 31 33 36 43 53 71 75 88 87 81 80 83 80
24 16 24 13 47 26 11 10 13 17 23 26 17 12 14 27 31 21 23 23 4 27 44 63 74 78 82 77 79 74 74 70
15 19 24 28 33 6 9 7 14 20 25 26 24 22 27 37 53 44 40 42 34 34 38 47 61 58 63 69 70 72 70 68
6 4 14 31 26 16 12 7 18 22 24 23 23 34 41 51 61 77 80 71 50 47 52 49 38 43 52 53 56 53 53 53
6 5 22 24 24 23 19 15 17 21 23 26 26 29 34 49 63 72 75 83 80 78 71 60 40 37 35 40 38 47 50 51
5 5 31 28 24 25 27 16 15 18 21 28 28 28 28 33 46 53 57 60 69 76 75 71 57 47 35 25 25 32 38 40
6 31 20 22 30 28 23 21 19 20 24 26 25 23 23 23 30 37 41 45 52 56 59 59 56 49 43 37 34 35 34 32
25 31 44 30 45 41 39 36 26 21 22 25 25 23 23 22 25 28 33 36 42 44 41 40 42 42 39 33 27 25 23 21
Wind_Direction_500mb
238 322 232 203 213 218 259 242 254 216 235 264 228 235 229 225 216 206 209 209 212 210 209 209 212 214 220 220 222 221 221 223
317 297 233 239 209 209 223 241 234 209 226 232 209 224 222 225 218 215 213 214 214 212 209 211 214 216 218 221 222 222 222 224
302 199 235 195 219 216 232 231 235 239 230 238 229 213 217 218 220 221 218 217 214 212 210 210 213 213 219 219 222 225 223 222
269 272 285 301 280 263 227 224 232 257 247 199 228 220 217 224 225 223 221 220 218 211 207 207 206 209 217 222 221 224 226 224
256 197 140 223 231 260 274 270 244 225 229 264 273 248 232 234 240 238 232 225 215 207 204 204 204 208 215 217 219 221 224 227
272 319 324 285 294 301 299 245 229 241 250 240 248 265 258 261 269 267 233 216 210 206 207 205 204 205 211 217 216 217 219 223
267 284 293 278 273 268 262 261 251 231 240 259 244 252 262 285 254 252 225 205 208 209 205 209 204 206 208 214 217 215 219 221
274 284 289 271 260 255 251 255 251 265 261 267 283 291 284 311 308 289 276 249 228 227 215 212 213 215 212 216 219 216 217 219
269 321 325 266 245 240 240 239 223 222 225 302 288 356 13 344 324 304 293 271 250 232 226 224 222 219 214 217 217 217 217 216
283 320 278 250 292 214 199 181 249 260 266 295 259 140 50 6 330 310 298 287 269 252 228 228 223 213 209 204 213 215 214 212
255 265 275 224 64 154 169 115 357 290 305 296 247 228 287 357 339 320 309 294 274 254 231 220 205 211 209 204 212 213 213 211
234 271 241 94 343 323 281 176 19 350 22 346 210 188 8 347 343 332 317 298 275 228 204 202 196 197 205 205 207 210 211 210
229 253 272 318 326 296 210 96 19 16 41 42 73 52 349 7 21 8 5 4 131 173 184 187 184 194 202 206 207 204 208 210
222 227 249 344 316 262 39 42 37 27 31 44 50 43 45 41 45 44 46 52 69 108 145 161 189 201 205 209 210 209 207 209
225 219 282 300 282 6 346 4 19 23 23 27 37 47 49 51 55 53 61 67 70 95 121 132 146 179 192 202 212 212 212 213
251 20 12 290 344 353 355 344 353 16 16 28 33 41 48 49 54 55 55 61 70 84 89 96 122 159 178 188 203 208 211 211
258 325 323 267 310 342 337 344 1 17 12 24 36 36 38 38 43 44 47 48 58 65 69 71 81 95 105 136 166 184 196 203
346 322 316 295 357 7 1 1 2 360 1 11 16 13 16 23 27 32 32 35 45 51 58 59 63 73 83 92 107 124 143 160
354 351 19 26 37 32 29 18 14 10 5 0 4 4 3 357 7 16 16 22 28 27 33 44 48 57 57 66 72 97 115 152
Wind_Speed_850mb
2 7 8 28 43 46 22 5 18 26 34 29 26 32 52 40 36 51 67 74 80 84 87 92 95 99 93 91 90 93 90 90
6 9 26 20 24 36 25 33 29 14 37 28 45 38 31 42 50 51 59 68 70 78 89 94 97 99 92 86 85 90 92 92
9 10 15 16 21 20 29 33 22 29 20 21 35 41 42 34 53 59 64 70 76 79 90 99 94 99 100 95 89 87 88 90
16 24 13 18 12 25 26 40 37 31 16 6 23 39 47 54 50 59 67 70 72 72 73 80 92 98 102 103 101 94 90 91
10 10 11 8 6 13 21 25 37 32 35 38 27 19 21 25 35 38 52 49 52 58 75 87 95 100 100 98 99 98 95 95
16 21 21 20 21 24 14 24 35 34 33 41 42 28 20 20 22 24 33 42 52 56 69 81 91 96 102 98 91 95 96 94
25 31 28 36 44 39 31 30 21 37 35 27 38 39 47 38 17 13 13 30 49 59 68 83 84 90 95 96 94 87 93 93
29 29 31 44 46 45 41 43 31 37 34 22 29 20 11 19 20 24 21 26 38 50 68 79 87 94 99 96 94 92 90 90
22 20 35 28 50 48 38 24 37 37 28 15 19 9 14 17 20 27 30 27 38 53 73 79 84 88 96 96 92 89 88 84
16 17 21 24 12 44 39 10 13 22 13 16 18 12 16 21 25 28 33 37 41 44 61 82 80 76 81 85 92 89 86 82
10 12 30 24 7 25 34 8 7 13 10 14 15 13 8 36 31 33 35 40 48 48 54 62 71 83 88 88 86 85 83 80
12 13 14 7 25 24 7 9 13 13 13 18 13 11 11 38 33 30 28 31 33 36 43 53 71 75 88 87 81 80 83 80
24 16 24 13 47 26 11 10 13 17 23 26 17 12 14 27 31 21 23 23 4 27 44 63 74 78 82 77 79 74 74 70
15 19 24 28 33 6 9 7 14 20 25 26 24 22 27 37 53 44 40 42 34 34 38 47 61 58 63 69 70 72 70 68
6 4 14 31 26 16 12 7 18 22 24 23 23 34 41 51 61 77 80 71 50 47 52 49 38 43 52 53 56 53 53 53
6 5 22 24 24 23 19 15 17 21 23 26 26 29 34 49 63 72 75 83 80 78 71 60 40 37 35 40 38 47 50 51
5 5 31 28 24 25 27 16 15 18 21 28 28 28 28 33 46 53 57 60 69 76 75 71 57 47 35 25 25 32 38 40
6 31 20 22 30 28 23 21 19 20 24 26 25 23 23 23 30 37 41 45 52 56 59 59 56 49 43 37 34 35 34 32
25 31 44 30 45 41 39 36 26 21 22 25 25 23 23 22 25 28 33 36 42 44 41 40 42 42 39 33 27 25 23 21
Wind_Direction_850mb
238 322 232 203 213 218 259 242 254 216 235 264 228 235 229 225 216 206 209 209 212 210 209 209 212 214 220 220 222 221 221 223
317 297 233 239 209 209 223 241 234 209 226 232 209 224 222 225 218 215 213 214 214 212 209 211 214 216 218 221 222 222 222 224
302 199 235 195 219 216 232 231 235 239 230 238 229 213 217 218 220 221 218 217 214 212 210 210 213 213 219 219 222 225 223 222
269 272 285 301 280 263 227 224 232 257 247 199 228 220 217 224 225 223 221 220 218 211 207 207 206 209 217 222 221 224 226 224
256 197 140 223 231 260 274 270 244 225 229 264 273 248 232 234 240 238 232 225 215 207 204 204 204 208 215 217 219 221 224 227
272 319 324 285 294 301 299 245 229 241 250 240 248 265 258 261 269 267 233 216 210 206 207 205 204 205 211 217 216 217 219 223
267 284 293 278 273 268 262 261 251 231 240 259 244 252 262 285 254 252 225 205 208 209 205 209 204 206 208 214 217 215 219 221
274 284 289 271 260 255 251 255 251 265 261 267 283 291 284 311 308 289 276 249 228 227 215 212 213 215 212 216 219 216 217 219
269 321 325 266 245 240 240 239 223 222 225 302 288 356 13 344 324 304 293 271 250 232 226 224 222 219 214 217 217 217 217 216
283 320 278 250 292 214 199 181 249 260 266 295 259 140 50 6 330 310 298 287 269 252 228 228 223 213 209 204 213 215 214 212
255 265 275 224 64 154 169 115 357 290 305 296 247 228 287 357 339 320 309 294 274 254 231 220 205 211 209 204 212 213 213 211
234 271 241 94 343 323 281 176 19 350 22 346 210 188 8 347 343 332 317 298 275 228 204 202 196 197 205 205 207 210 211 210
229 253 272 318 326 296 210 96 19 16 41 42 73 52 349 7 21 8 5 4 131 173 184 187 184 194 202 206 207 204 208 210
222 227 249 344 316 262 39 42 37 27 31 44 50 43 45 41 45 44 46 52 69 108 145 161 189 201 205 209 210 209 207 209
225 219 282 300 282 6 346 4 19 23 23 27 37 47 49 51 55 53 61 67 70 95 121 132 146 179 192 202 212 212 212 213
251 20 12 290 344 353 355 344 353 16 16 28 33 41 48 49 54 55 55 61 70 84 89 96 122 159 178 188 203 208 211 211
258 325 323 267 310 342 337 344 1 17 12 24 36 36 38 38 43 44 47 48 58 65 69 71 81 95 105 136 166 184 196 203
346 322 316 295 357 7 1 1 2 360 1 11 16 13 16 23 27 32 32 35 45 51 58 59 63 73 83 92 107 124 143 160
354 351 19 26 37 32 29 18 14 10 5 0 4 4 3 357 7 16 16 22 28 27 33 44 48 57 57 66 72 97 115 152